Weather Roundup
Issued by NWS Chicago, IL

Home | Current Version | Previous Version | Text Only | Print | Product List | Glossary Off
Versions: 1 2 3 4 5 6 7 8 9 10 11 12 13 14 15 16 17 18 19 20 21 22 23 24 25 26 27 28 29 30 31 32 33 34 35 36 37 38 39 40 41 42 43 44 45 46 47 48 49 50

000
NZUS59 KLOT 031903
HRRLOT

CHICAGO AREA WEATHER ROUNDUP
NATIONAL WEATHER SERVICE CHICAGO/ROMEOVILLE IL
200 PM CDT TUE MAY 03 2016

NOTE: "FAIR" INDICATES FEW OR NO CLOUDS BELOW 12,000 FEET WITH NO
SIGNIFICANT WEATHER AND/OR OBSTRUCTIONS TO VISIBILITY.

* THESE STATIONS ARE NOT UNDER NWS QUALITY CONTROL. THEY ALSO MAY NOT
  REPORT WEATHER SUCH AS PRECIPITATION OR FOG.

ILZ005-006-012>014-019>023-032000-
NORTHEAST ILLINOIS

CITY           SKY/WX    TMP DP  RH WIND       PRES   REMARKS
OHARE          PTSUNNY   64  38  38 W10       29.86F
MIDWAY         PTSUNNY   66  37  34 W10       29.87F
AURORA         CLOUDY    64  40  41 W18G25    29.89F
LANSING*       PTSUNNY   64  36  36 W8        29.88F
WAUKEGAN       CLOUDY    65  38  36 W9        29.84F
DUPAGE AIRPORT CLOUDY    63  37  38 W9        29.87F
WHEELING       CLOUDY    66  37  34 VRB7      29.87F
$$

WIZ051-052-058>065-066-070>072-032000-
SOUTHEAST WISCONSIN

CITY           SKY/WX    TMP DP  RH WIND       PRES   REMARKS
MILWAUKEE      CLOUDY    65  32  29 W10G22    29.82F
KENOSHA*       CLOUDY    67  40  37 W14       29.84F
RACINE*        CLOUDY    67  34  29 W9        29.84F
BURLINGTON     MOSUNNY   66  34  30 W13G18    29.84F
WAUKESHA       PTSUNNY   63  34  34 W18       29.83F
$$

INZ001>003-010>013-019-020-032000-
NORTHWEST INDIANA

CITY           SKY/WX    TMP DP  RH WIND       PRES   REMARKS
GARY*          PTSUNNY   66  45  45 N5        29.88F
MICHIGAN CITY* NOT AVBL
RENSSELAER*    NOT AVBL
VALPARAISO     SUNNY     64  32  30 N8        29.89F
$$

LMZ740>746-032000-
SOUTHERN LAKE MICHIGAN

STATION/POSITION TIME  SKY/WX   TEMP WIND        PRES    VSBY
                                AIR  DIR/SP/G
                 (UTC)          (F)  (DEG/KT/KT) (MB)    (MI)
HARRISON CRIB    1800            58  140/ 14/ 14   N/A
BURNHAM HARBOR   1900            53  160/  6/ 11   N/A
CALUMET HARBOR   1800            58   80/  9/ 10 1011.9F
BURNS HARBOR     1800            61   CALM  /  2 1013.5F
MICHIGAN CITY    1800            53  220/  2/  2   N/A
$$

ABBREVIATIONS USED IN REMARKS
   TC - TEMPERATURE IN CELSIUS
  WCI - WIND CHILL INDEX
   HX - HEAT INDEX
  VSB - VISIBILITY
$$



USA.gov is the U.S. government's official web portal to all federal, state and local government web resources and services.